Home > Weather > Battambang > Past weeks

Flag for Cambodia Past Weather in Battambang, Cambodia — Yesterday and Last 2 Weeks

Now
90 °F

Scattered clouds.


Feels Like: 105 °F
Forecast: 79 / 92 °F
Wind: 2 mph from North

Location: Siemreap

Current Time: Aug 28, 2016 at 2:08:08 PM

Latest Report: Aug 28, 2016 at 1:30 PM


Visibility: N/A

Pressure: 29.68 "Hg

Humidity: 71%

Dew Point: 79 °F

Location of BattambangLocation

Past Weather in Battambang — Graph

°F

Battambang Temperature Yesterday

Maximum temperature yesterday: 91 °F (at 12:00 PM)
Minimum temperature yesterday: 79 °F (at 7:00 AM)
Average temperature yesterday: 85 °F

High & Low Weather Summary for the Past Weeks

 TemperatureHumidityPressure
High95 °F (Aug 15, 1:30 PM)100% (Aug 14, 7:00 AM)29.80 "Hg (Aug 14, 7:00 AM)
Low75 °F (Aug 16, 3:00 PM)44% (Aug 21, 4:30 PM)29.50 "Hg (Aug 19, 3:30 PM)
Average85 °F81%29.64 "Hg
* Reported Aug 13 1:00 PM — Aug 28 1:00 PM, Battambang, Weather by CustomWeather, © 2016

Note: Actual official high and low records may vary slightly from our data, if they occured in-between our weather recording intervals... More about our weather records

Advertising

Battambang Weather History for the Previous 24 Hours

Scroll right to see more
 ConditionsComfort  
Time TempWeatherWind HumidityBarometerVisibility
1:00 PM
Sun, Aug 28
90 °FScattered clouds.1 mph71%29.71 "HgN/A
12:30 PM88 °FScattered clouds.1 mph75%29.74 "HgN/A
12:00 PM86 °FBroken clouds.7 mph84%29.74 "HgN/A
11:30 AM88 °FScattered clouds.6 mph79%29.77 "HgN/A
11:00 AM86 °FScattered clouds.7 mph84%29.77 "HgN/A
10:30 AM86 °FScattered clouds.3 mph84%29.80 "HgN/A
10:00 AM84 °FBroken clouds.3 mph84%29.80 "HgN/A
9:30 AM82 °FBroken clouds.1 mph94%29.80 "Hg6 mi
9:00 AM81 °FBroken clouds.2 mph100%29.80 "Hg5 mi
8:30 AM79 °FBroken clouds.1 mph100%29.80 "Hg5 mi
8:00 AM79 °FBroken clouds.2 mph100%29.80 "Hg5 mi
7:30 AM79 °FBroken clouds.3 mph100%29.77 "Hg5 mi
2:00 AM81 °FPassing clouds.2 mph100%29.71 "Hg4 mi
1:30 AM81 °FPassing clouds.No wind100%29.77 "Hg4 mi
1:00 AM81 °FPassing clouds.No wind100%29.77 "Hg4 mi
12:30 AM81 °FPassing clouds.1 mph100%29.77 "Hg4 mi
12:00 AM79 °FPassing clouds.3 mph100%29.77 "Hg4 mi
11:30 PM
Sat, Aug 27
79 °FPassing clouds.No wind100%29.77 "Hg4 mi
11:00 PM79 °FPassing clouds.2 mph100%29.77 "Hg4 mi
10:30 PM79 °FPassing clouds.3 mph100%29.77 "Hg4 mi
10:00 PM79 °FPassing clouds.8 mph100%29.80 "Hg4 mi
9:30 PM79 °FThunderstorms. Passing clouds.8 mph100%29.77 "Hg4 mi
9:00 PM81 °FThunderstorms. Passing clouds.6 mph100%29.80 "Hg4 mi
8:30 PM81 °FThunderstorms. Passing clouds.12 mph100%29.77 "Hg4 mi
8:00 PM79 °FThunderstorms. Passing clouds.12 mph100%29.74 "Hg4 mi
7:30 PM82 °FPassing clouds.14 mph84%29.71 "Hg4 mi
7:00 PM88 °FPassing clouds.16 mph75%29.68 "Hg5 mi
6:00 PM90 °FScattered clouds.3 mph63%29.65 "HgN/A
5:30 PM91 °FScattered clouds.2 mph59%29.65 "HgN/A
5:00 PM91 °FScattered clouds.2 mph59%29.65 "HgN/A
4:30 PM90 °FScattered clouds.3 mph63%29.65 "HgN/A
4:00 PM84 °FScattered clouds.10 mph84%29.65 "HgN/A
3:30 PM91 °FScattered clouds.5 mph63%29.65 "HgN/A
3:00 PM91 °FScattered clouds.2 mph63%29.68 "HgN/A
2:30 PM91 °FScattered clouds.3 mph63%29.68 "HgN/A
2:00 PM91 °FScattered clouds.5 mph63%29.68 "HgN/A
Weather by CustomWeather, © 2016

See weather overviewHow to use our weather pages